Weather History for KILM - January, 2014

Change the Weather History Date:

Tuesday, January 7, 2014

  Actual Average Record
Temperature  
Mean Temperature 25 °F 46 °F  
Max Temperature 32 °F 56 °F 79 °F (1890)
Min Temperature 18 °F 35 °F 16 °F (1884)
Degree Days  
Heating Degree Days 40 19  
Month to date heating degree days 148 133  
Since 1 July heating degree days 948 1017  
Cooling Degree Days 0 0  
Month to date cooling degree days 0 0  
Year to date cooling degree days 0 0  
Moisture  
Dew Point 0 °F    
Average Humidity 45    
Maximum Humidity 65    
Minimum Humidity 25    
Precipitation  
Precipitation 0.00 in 0.12 in 2.55 in (1995)
Month to date precipitation 0.99 0.84  
Year to date precipitation 0.99 0.84  
Snow  
Snow 0.00 in 0.00 in 0.40 in (1988)
Month to date snowfall 0.0 0.2  
Since 1 July snowfall T 1.0  
Snow Depth 0.00 in    
Sea Level Pressure  
Sea Level Pressure 30.42 in    
Wind  
Wind Speed 10 mph (NW)    
Max Wind Speed 24 mph    
Max Gust Speed 31 mph    
Visibility 10 miles    
Events      
T = Trace of Precipitation, MM = Missing Value Source: NWS Daily Summary

Daily Weather History Graph

Daily Weather History Graph

Search for Another Location

Airport or City:

Trip Planner

Search our weather history database for the weather conditions in past years. The results will help you decide how hot, cold, wet, or windy it might be!

Date:

Astronomy

Jan. 07, 2014 Rise Set
Actual Time 7:18 AM EST 5:17 PM EST
Civil Twilight 6:50 AM EST 5:45 PM EST
Nautical Twilight 6:19 AM EST 6:16 PM EST
Astronomical Twilight 5:49 AM EST 6:46 PM EST
Moon 11:25 AM EST (1/7) No Moon Set
Length of Visible Light 10h 54m
Length of Day
9h 59m
Waxing Crescent, 45% of the Moon is Illuminated
Jan 7
Waxing Crescent
Jan 7
First Quarter
Jan 15
Full
Jan 24
Last Quarter
Jan 30
New

Hourly Weather History & Observations

Time (EST) Temp. Windchill Dew Point Humidity Pressure Visibility Wind Dir Wind Speed Gust Speed Precip Events Conditions
12:53 AM 28.9 °F 16.1 °F 5.0 °F 36% 30.19 in 10.0 mi NW 19.6 mph 26.5 mph N/A   Clear
1:53 AM 26.1 °F 12.3 °F -2.0 °F 30% 30.22 in 10.0 mi NW 19.6 mph 27.6 mph N/A   Clear
2:53 AM 24.1 °F 10.1 °F -0.9 °F 34% 30.26 in 10.0 mi NW 18.4 mph 26.5 mph N/A   Clear
3:53 AM 21.9 °F 7.8 °F -2.0 °F 35% 30.30 in 10.0 mi NW 17.3 mph - N/A   Clear
4:53 AM 21.0 °F 7.6 °F -0.0 °F 40% 30.34 in 10.0 mi NW 15.0 mph 23.0 mph N/A   Clear
5:53 AM 19.0 °F 5.6 °F -2.9 °F 38% 30.37 in 10.0 mi NW 13.8 mph - N/A   Clear
6:53 AM 18.0 °F 4.2 °F -2.9 °F 40% 30.41 in 10.0 mi NW 13.8 mph - N/A   Clear
7:53 AM 18.0 °F 4.8 °F -5.1 °F 36% 30.43 in 10.0 mi NW 12.7 mph - N/A   Clear
8:53 AM 19.9 °F 4.3 °F -7.1 °F 30% 30.45 in 10.0 mi NNW 19.6 mph 25.3 mph N/A   Clear
9:53 AM 23.0 °F 8.3 °F -7.1 °F 27% 30.49 in 10.0 mi NW 19.6 mph - N/A   Clear
10:53 AM 25.0 °F 13.6 °F -6.0 °F 26% 30.50 in 10.0 mi NW 12.7 mph 20.7 mph N/A   Clear
11:53 AM 27.0 °F 17.3 °F -5.1 °F 25% 30.46 in 10.0 mi NW 10.4 mph 17.3 mph N/A   Clear
12:53 PM 28.9 °F 18.6 °F -2.9 °F 25% 30.43 in 10.0 mi NW 12.7 mph 18.4 mph N/A   Clear
1:53 PM 28.9 °F 19.8 °F -2.9 °F 25% 30.43 in 10.0 mi NNW 10.4 mph 18.4 mph N/A   Clear
2:53 PM 30.0 °F 22.4 °F -2.0 °F 25% 30.43 in 10.0 mi NNW 8.1 mph - N/A   Clear
3:53 PM 30.0 °F 22.4 °F -2.9 °F 24% 30.43 in 10.0 mi NNW 8.1 mph - N/A   Clear
4:53 PM 28.0 °F 20.8 °F -0.9 °F 29% 30.45 in 10.0 mi NW 6.9 mph - N/A   Clear
5:53 PM 27.0 °F - -0.0 °F 31% 30.47 in 10.0 mi Calm Calm - N/A   Clear
6:53 PM 27.0 °F 21.6 °F 3.0 °F 36% 30.51 in 10.0 mi NW 4.6 mph - N/A   Clear
7:53 PM 26.1 °F 20.5 °F 3.9 °F 39% 30.53 in 10.0 mi WNW 4.6 mph - N/A   Clear
8:53 PM 26.1 °F - 5.0 °F 41% 30.55 in 10.0 mi Calm Calm - N/A   Clear
9:53 PM 25.0 °F 20.7 °F 6.1 °F 45% 30.54 in 10.0 mi WNW 3.5 mph - N/A   Clear
10:53 PM 23.0 °F - 12.9 °F 65% 30.54 in 10.0 mi Calm Calm - N/A   Clear
11:53 PM 24.1 °F - 12.9 °F 62% 30.52 in 10.0 mi Calm Calm - N/A   Clear